Regional Weather Roundup
Issued by NWS

Home | Current Version | Previous Version | Graphics & Text | Print | Product List | Glossary On
Versions: 1 2 3 4 5 6 7 8 9 10 11 12 13 14 15 16 17 18 19 20 21 22 23 24 25 26 27 28 29 30 31 32 33 34 35 36 37 38 39 40 41 42 43 44 45 46 47 48 49 50
000
ASUS43 KMKX 240821
RWRWI

WISCONSIN REGIONAL WEATHER ROUNDUP
NATIONAL WEATHER SERVICE MILWAUKEE/SULLIVAN WI
300 AM CDT TUE APR 24 2018

NOTE: "FAIR" INDICATES FEW OR NO CLOUDS BELOW 12,000 FEET WITH NO
SIGNIFICANT WEATHER AND/OR OBSTRUCTIONS TO VISIBILITY.

WIZ001-002-006>008-014>016-023>028-240900-
NORTHWEST WISCONSIN

CITY           SKY/WX    TMP DP  RH WIND       PRES   REMARKS
SUPERIOR ARPT  FAIR      37  33  87 CALM      30.15R
ASHLAND        FAIR      41  30  65 W3        30.13R
HAYWARD        FAIR      32  27  81 CALM      30.13F
SIREN          FAIR      36  31  83 CALM      30.13F
CUMBERLAND     FAIR      34  30  86 CALM      30.12F
RICE LAKE      FAIR      35  33  94 CALM      30.15S
CHETEK         FAIR      34  32  92 CALM      30.13S
LADYSMITH      FAIR      35  30  82 CALM      30.14F
EAU CLAIRE     FAIR      39  33  79 CALM      30.11F
MENOMONIE      FAIR      40  33  77 CALM      30.12F
NEW RICHMOND   FAIR      38  34  85 NE3       30.13S
OSCEOLA        FAIR      37  33  85 CALM      30.15F
$$

WIZ003>005-009-010-017-018-240900-
NORTH CENTRAL WISCONSIN

CITY           SKY/WX    TMP DP  RH WIND       PRES   REMARKS
MANITOWISH WTR FAIR      30  27  86 CALM      30.12S
ARBOR VITAE    FAIR      33  27  79 CALM      30.12F
WOODRUFF       FAIR      33  27  79 CALM      30.12F
RHINELANDER    FAIR      33  26  75 CALM      30.12F
EAGLE RIVER    FAIR      31  25  78 CALM      30.11F
LAND O LAKES   FAIR      29  25  84 CALM      30.13F
PHILLIPS       FAIR      31  28  90 CALM      30.12F
TOMAHAWK       FAIR      28  24  84 CALM      30.13F
MEDFORD        FAIR      34  30  86 CALM      30.12F
MERRILL        FAIR      30  27  87 CALM      30.12F
$$

WIZ029-030-035-036-043>047-240900-
CENTRAL WISCONSIN

CITY           SKY/WX    TMP DP  RH WIND       PRES   REMARKS
WAUSAU         FAIR      35  28  75 CALM      30.10F
MOSINEE        FAIR      37  27  65 CALM      30.13F
MARSHFIELD     FAIR      40  28  62 NW5       30.10F
STEVENS POINT  FAIR      31  25  79 CALM      30.13S
WAUPACA        FAIR      36  30  80 CALM      30.12F
WAUTOMA        FAIR      34  29  82 CALM      30.12F
WISC RAPIDS    FAIR      36  28  73 CALM      30.12F
CAMP DOUGLAS   FAIR      33  30  92 CALM      30.11F
$$

WIZ011>013-019>022-031-037>040-048>050-240900-
NORTHEAST WISCONSIN

CITY           SKY/WX    TMP DP  RH WIND       PRES   REMARKS
ANTIGO         FAIR      32  31  94 CALM      30.12F
SHAWANO        FAIR      34  29  85 CALM      30.11F
OCONTO         FAIR      32  29  88 CALM      30.11F
STURGEON BAY   FAIR      41  29  62 CALM      30.12S
GREEN BAY      FAIR      41  33  73 CALM      30.11S
MANITOWOC      FAIR      45  31  58 NW7       30.10F
APPLETON       FAIR      45  27  49 N6        30.10R
CLINTONVILLE   FAIR      35  29  79 CALM      30.11F
OSHKOSH        FAIR      41  34  76 NW5       30.10F
$$

WIZ032>034-041-042-053>061-240900-
SOUTHWEST WISCONSIN

CITY           SKY/WX    TMP DP  RH WIND       PRES   REMARKS
LA CROSSE      FAIR      46  34  62 CALM      30.12F
SPARTA         FAIR      32  29  88 CALM      30.13S
VIROQUA        FAIR      47  30  51 CALM      30.11S
BOSCOBEL       FAIR      36  31  82 CALM      30.12F
PRAIRIE DU CHI FAIR      40  31  71 CALM      30.11F
PLATTEVILLE    FAIR      43  32  65 NE5       30.10F
$$

WIZ056-057-062-063-064-067-068-240900-
SOUTH CENTRAL WISCONSIN

CITY           SKY/WX    TMP DP  RH WIND       PRES   REMARKS
REEDSBURG      FAIR      37  33  84 CALM      30.11S
BARABOO/DELLS  FAIR      35  29  78 CALM      30.11S
LONE ROCK      FAIR      34  31  88 CALM      30.11F
MINERAL POINT  FAIR      43  32  65 CALM      30.10S
MADISON        FAIR      41  34  76 CALM      30.09F
MIDDLETON      FAIR      37  36  93 CALM      30.10S
WATERTOWN      FAIR      43  34  69 CALM      30.08F
MONROE         FAIR      46  30  53 N5        30.08F
JANESVILLE     FAIR      45  34  65 CALM      30.08F
$$

WIZ051-052-058>065-066-070>072-240900-
SOUTHEAST WISCONSIN

CITY           SKY/WX    TMP DP  RH WIND       PRES   REMARKS
MILWAUKEE      CLOUDY    49  30  48 NW6       30.07F
WAUKESHA       MOCLDY    45  28  53 CALM      30.08F
MILWAUKEE/TIMM FAIR      45  28  53 CALM      30.08S
RACINE         MOCLDY    46  31  55 CALM      30.09S
BURLINGTON     FAIR      45  33  62 NW3       30.08S
KENOSHA        CLOUDY    47  31  53 N3        30.07S
FOND DU LAC    FAIR      40  34  79 CALM      30.09F
SHEBOYGAN      FAIR      46  32  58 N8        30.07F
WEST BEND      FAIR      45  28  53 CALM      30.08F
JUNEAU         FAIR      44  29  56 CALM      30.09F
$$

LSZ147-162-240900-
LAKE SUPERIOR

STATION/POSITION TIME  TEMP    WIND        PRES    WAVE
                       AIR SEA DIR/SP/G            HT/PER
                 (UTC) (F)     (DEG/KT/KT) (MB)    (FT/S)
DEVILS ISLAND    0800   47      10/ 14/ 15 1020.9R
SAXON HARBOR     0740   36     200/  5/  6 1019.3S
$$

LMZ867-665-643>646-240900-
LAKE MICHIGAN

STATION/POSITION TIME  TEMP    WIND        PRES    WAVE
                       AIR SEA DIR/SP/G            HT/PER
                 (UTC) (F)     (DEG/KT/KT) (MB)    (FT/S)
NORTHPORT PIER   0740   39                 1019.6F
KEWAUNEE LAKESHO 0754   42     300/  6/  7 1018.6F
SHEBOYGAN LAKESH 0800   49     350/ 10/ 11 1018.6F
PORT WASHINGTON  0730   47     120/  1/  8 1019.6S
MILWAUKEE LAKESH 0800   49     320/  6/  8   N/A
KENOSHA   LAKESH 0800   44                 1018.3
$$

TC  - TEMPERATURE IN CELSIUS
VSB - VISIBILITY IN STATUTE MILES
WCI - WIND CHILL INDEX
HX  - HEAT INDEX





USA.gov is the U.S. government's official web portal to all federal, state and local government web resources and services.